Cozumel, Mexico

12:56 AM EST on July 27, 2017 (GMT -0500)
Cozumel

Weather History for MMCZ - May, 2013

Change the Weather History Date:

Wednesday, May 8, 2013

  Actual Average Record
Temperature  
Mean Temperature 74 °F -  
Max Temperature 84 °F 87 °F 91 °F (1998)
Min Temperature 64 °F 75 °F 59 °F (2016)
Cooling Degree Days 9    
Growing Degree Days 24 (Base 50)    
Moisture  
Dew Point 66 °F    
Average Humidity 78    
Maximum Humidity 94    
Minimum Humidity 55    
Precipitation  
Precipitation 0.00 in - - ()
Sea Level Pressure  
Sea Level Pressure 30.05 in    
Wind  
Wind Speed 4 mph ()    
Max Wind Speed 16 mph    
Max Gust Speed -    
Visibility 7.6 miles    
Events      
Averages and records for this station are not official NWS values.
T = Trace of Precipitation, MM = Missing Value Source: Averaged Metar Reports

Daily Weather History Graph

Daily Weather History Graph

Search for Another Location

Airport or City:

Trip Planner

Search our weather history database for the weather conditions in past years. The results will help you decide how hot, cold, wet, or windy it might be!

Date:

Astronomy

May. 08, 2013 Rise Set
Actual Time 6:13 AM CDT 7:14 PM CDT
Civil Twilight 5:50 AM CDT 7:38 PM CDT
Nautical Twilight 5:22 AM CDT 8:06 PM CDT
Astronomical Twilight 4:54 AM CDT 8:34 PM CDT
Moon 5:12 AM CDT (5/8) 6:18 PM CDT (5/8)
Length of Visible Light 13h 47m
Length of Day
13h 00m
Waning Crescent, 2% of the Moon is Illuminated
May 8
Waning Crescent
May 9
New
May 17
First Quarter
May 24
Full
May 31
Last Quarter

Hourly Weather History & Observations

Time (CDT) Temp. Heat Index Dew Point Humidity Pressure Visibility Wind Dir Wind Speed Gust Speed Precip Events Conditions
12:40 AM 66.2 °F - 64.4 °F 94% 30.00 in 7.0 mi Calm Calm - N/A   Clear
1:40 AM 66.2 °F - 64.4 °F 94% 30.03 in 7.0 mi Calm Calm - N/A   Clear
2:42 AM 66.2 °F - 64.4 °F 94% 30.02 in 7.0 mi Calm Calm - N/A   Clear
3:44 AM 66.2 °F - 64.4 °F 94% 30.04 in 7.0 mi Calm Calm - N/A   Clear
4:42 AM 66.2 °F - 64.4 °F 94% 30.02 in 7.0 mi Calm Calm - N/A   Clear
5:41 AM 66.2 °F - 64.4 °F 94% 30.02 in 7.0 mi Calm Calm - N/A   Partly Cloudy
6:43 AM 64.4 °F - 62.6 °F 94% 30.04 in 7.0 mi Calm Calm - N/A   Partly Cloudy
7:44 AM 71.6 °F - 66.2 °F 83% 30.07 in 8.0 mi ESE 3.5 mph - N/A   Scattered Clouds
9:01 AM 78.8 °F - 66.2 °F 65% 30.08 in 8.0 mi East 10.4 mph - N/A   Scattered Clouds
9:49 AM 78.8 °F - 66.2 °F 65% 30.12 in 8.0 mi ESE 8.1 mph - N/A   Scattered Clouds
10:44 AM 80.6 °F 82.7 °F 66.2 °F 61% 30.10 in 8.0 mi ESE 10.4 mph - N/A   Scattered Clouds
11:40 AM 82.4 °F 84.6 °F 66.2 °F 58% 30.10 in 8.0 mi SE 11.5 mph - N/A   Scattered Clouds
12:46 PM 82.4 °F 84.6 °F 66.2 °F 58% 30.05 in 8.0 mi SE 11.5 mph - N/A   Scattered Clouds
1:40 PM 84.2 °F 86.6 °F 66.2 °F 55% 30.07 in 8.0 mi ESE 11.5 mph - N/A   Scattered Clouds
2:42 PM 82.4 °F 84.6 °F 66.2 °F 58% 30.04 in 8.0 mi ESE 16.1 mph - N/A   Scattered Clouds
3:41 PM 82.4 °F 85.4 °F 68.0 °F 62% 30.05 in 8.0 mi ESE 8.1 mph - N/A   Scattered Clouds
4:40 PM 82.4 °F 85.4 °F 68.0 °F 62% 30.02 in 8.0 mi ESE 10.4 mph - N/A   Scattered Clouds
5:40 PM 80.6 °F 83.2 °F 68.0 °F 65% 30.01 in 8.0 mi ESE 16.1 mph - N/A   Scattered Clouds
6:40 PM 77.0 °F - 68.0 °F 74% 29.98 in 8.0 mi East 9.2 mph - N/A   Scattered Clouds
7:40 PM 75.2 °F - 68.0 °F 78% 30.03 in 8.0 mi East 4.6 mph - N/A   Scattered Clouds
8:41 PM 73.4 °F - 68.0 °F 83% 30.04 in 8.0 mi Calm Calm - N/A   Scattered Clouds
9:44 PM 69.8 °F - 68.0 °F 94% 30.08 in 7.0 mi ESE 3.5 mph - N/A   Partly Cloudy
10:49 PM 68.0 °F - 66.2 °F 94% 30.07 in 7.0 mi ESE 3.5 mph - N/A   Partly Cloudy
11:54 PM 68.0 °F - 66.2 °F 94% 30.07 in 7.0 mi Calm Calm - N/A   Partly Cloudy